AZU2703 SBCX-SBRJ

Flight info

Callsign AZU2703
Flight time 1h 33m
Altitude 37000
Route ARTIL UZ104 SAVLU UM400 GESBO DCT KOLBI
Aircraft A20N/M-SDE2E3FGHIRWXY/LB1

Departure

Time 2026-04-12 10:23
Airport Hugo Cantergiani Regional Airport (SBCX)

Arrival

Time 2026-04-12 11:57
Airport Santos Dumont Airport (SBRJ)
Time Latitude Longitude Altitude Speed Heading
2026-04-12 10:23 -29.22840 -51.15414 3996 ft 186 kts 132°
2026-04-12 10:23 -29.23810 -51.14317 4378 ft 205 kts 132°
2026-04-12 10:23 -29.24863 -51.13110 4766 ft 226 kts 133°
2026-04-12 10:24 -29.26010 -51.11787 5178 ft 247 kts 134°
2026-04-12 10:24 -29.27209 -51.10254 5602 ft 269 kts 120°
2026-04-12 10:24 -29.27820 -51.08171 6108 ft 283 kts 91°
2026-04-12 10:24 -29.27500 -51.05963 6973 ft 284 kts 65°
2026-04-12 10:25 -29.26351 -51.04140 7789 ft 284 kts 38°
2026-04-12 10:25 -29.24638 -51.03096 8590 ft 285 kts 12°
2026-04-12 10:25 -29.22660 -51.02897 9012 ft 287 kts 355°
2026-04-12 10:25 -29.20668 -51.03085 9158 ft 286 kts 354°
2026-04-12 10:26 -29.18675 -51.03038 9203 ft 289 kts
2026-04-12 10:26 -29.16736 -51.02423 9198 ft 290 kts 20°
2026-04-12 10:26 -29.14931 -51.01364 9204 ft 292 kts 30°
2026-04-12 10:26 -29.13235 -51.00088 9205 ft 291 kts 30°
2026-04-12 10:27 -29.11428 -50.99105 9313 ft 292 kts 16°
2026-04-12 10:27 -29.09431 -50.98640 9951 ft 293 kts
2026-04-12 10:27 -29.07401 -50.98300 10786 ft 294 kts
2026-04-12 10:27 -29.05364 -50.97944 11587 ft 297 kts
2026-04-12 10:28 -29.03311 -50.97586 12357 ft 300 kts
2026-04-12 10:28 -29.01230 -50.97228 13044 ft 309 kts
2026-04-12 10:28 -28.99019 -50.96855 13270 ft 331 kts
2026-04-12 10:28 -28.96669 -50.96462 13507 ft 351 kts
2026-04-12 10:29 -28.94229 -50.96054 14121 ft 357 kts
2026-04-12 10:29 -28.91800 -50.95645 14807 ft 359 kts
2026-04-12 10:29 -28.89318 -50.95228 15482 ft 361 kts
2026-04-12 10:29 -28.86820 -50.94809 16141 ft 365 kts
2026-04-12 10:30 -28.84300 -50.94381 16782 ft 368 kts
2026-04-12 10:30 -28.81789 -50.93691 17410 ft 373 kts 15°
2026-04-12 10:30 -28.79360 -50.92594 18028 ft 378 kts 24°
2026-04-12 10:30 -28.77033 -50.91146 18614 ft 383 kts 27°
2026-04-12 10:31 -28.74695 -50.89639 19108 ft 387 kts 27°
2026-04-12 10:31 -28.72320 -50.88123 19587 ft 392 kts 27°
2026-04-12 10:31 -28.69917 -50.86595 20064 ft 397 kts 26°
2026-04-12 10:31 -28.67521 -50.85076 20518 ft 402 kts 27°
2026-04-12 10:32 -28.65036 -50.83500 21012 ft 406 kts 26°
2026-04-12 10:32 -28.62555 -50.81928 21471 ft 410 kts 26°
2026-04-12 10:32 -28.60072 -50.80355 21923 ft 415 kts 26°
2026-04-12 10:32 -28.57534 -50.78748 22383 ft 419 kts 27°
2026-04-12 10:33 -28.54967 -50.77123 22842 ft 424 kts 27°
2026-04-12 10:33 -28.52361 -50.75475 23299 ft 428 kts 27°
2026-04-12 10:33 -28.49744 -50.73820 23750 ft 432 kts 26°
2026-04-12 10:33 -28.47099 -50.72150 24143 ft 436 kts 26°
2026-04-12 10:34 -28.44437 -50.70469 24571 ft 439 kts 26°
2026-04-12 10:34 -28.41760 -50.68779 24993 ft 441 kts 26°
2026-04-12 10:34 -28.39064 -50.67078 25387 ft 444 kts 26°
2026-04-12 10:34 -28.36348 -50.65366 25787 ft 447 kts 26°
2026-04-12 10:35 -28.33622 -50.63648 26198 ft 450 kts 26°
2026-04-12 10:35 -28.30871 -50.61917 26584 ft 453 kts 26°
2026-04-12 10:35 -28.28103 -50.60175 26966 ft 456 kts 26°
2026-04-12 10:35 -28.25315 -50.58422 27337 ft 459 kts 26°
2026-04-12 10:36 -28.22504 -50.56655 27715 ft 462 kts 26°
2026-04-12 10:36 -28.19688 -50.54886 28083 ft 464 kts 26°
2026-04-12 10:36 -28.16850 -50.53105 28435 ft 467 kts 26°
2026-04-12 10:36 -28.13992 -50.51312 28777 ft 470 kts 26°
2026-04-12 10:37 -28.11125 -50.49515 29113 ft 473 kts 26°
2026-04-12 10:37 -28.08271 -50.47728 29441 ft 475 kts 26°
2026-04-12 10:37 -28.05360 -50.45904 29747 ft 478 kts 26°
2026-04-12 10:37 -28.02427 -50.44069 30058 ft 481 kts 26°
2026-04-12 10:38 -27.99453 -50.42210 30365 ft 483 kts 26°
2026-04-12 10:38 -27.96499 -50.40363 30623 ft 486 kts 26°
2026-04-12 10:38 -27.93532 -50.38509 30888 ft 489 kts 26°
2026-04-12 10:38 -27.90585 -50.36670 31163 ft 491 kts 26°
2026-04-12 10:39 -27.87552 -50.34778 31436 ft 493 kts 26°
2026-04-12 10:39 -27.84576 -50.32923 31778 ft 493 kts 26°
2026-04-12 10:39 -27.81563 -50.31045 32097 ft 494 kts 26°
2026-04-12 10:39 -27.78559 -50.29174 32455 ft 494 kts 26°
2026-04-12 10:40 -27.75504 -50.27272 32776 ft 494 kts 25°
2026-04-12 10:40 -27.72515 -50.25413 33094 ft 494 kts 25°
2026-04-12 10:40 -27.69496 -50.23537 33390 ft 495 kts 25°
2026-04-12 10:40 -27.66478 -50.21663 33685 ft 495 kts 25°
2026-04-12 10:41 -27.63455 -50.19787 33985 ft 495 kts 25°
2026-04-12 10:41 -27.60428 -50.17910 34273 ft 495 kts 25°
2026-04-12 10:41 -27.57410 -50.16039 34520 ft 496 kts 25°
2026-04-12 10:41 -27.54386 -50.14166 34749 ft 496 kts 25°
2026-04-12 10:42 -27.51352 -50.12288 34983 ft 497 kts 25°
2026-04-12 10:42 -27.48326 -50.10415 35206 ft 497 kts 25°
2026-04-12 10:42 -27.45295 -50.08534 35422 ft 497 kts 25°
2026-04-12 10:42 -27.42258 -50.06645 35611 ft 499 kts 25°
2026-04-12 10:43 -27.36212 -50.02883 36040 ft 499 kts 24°
2026-04-12 10:43 -27.33171 -50.00994 36254 ft 499 kts 24°
2026-04-12 10:43 -27.30122 -49.99101 36426 ft 500 kts 24°
2026-04-12 10:44 -27.27070 -49.97209 36604 ft 501 kts 24°
2026-04-12 10:44 -27.24019 -49.95318 36799 ft 501 kts 24°
2026-04-12 10:44 -27.20959 -49.93424 36985 ft 501 kts 24°
2026-04-12 10:44 -27.17904 -49.91535 37130 ft 502 kts 24°
2026-04-12 10:45 -27.14840 -49.89641 37240 ft 503 kts 24°
2026-04-12 10:45 -27.11766 -49.87742 37242 ft 502 kts 24°
2026-04-12 10:45 -27.05650 -49.83968 37243 ft 501 kts 24°
2026-04-12 10:46 -26.99490 -49.80171 37243 ft 502 kts 24°
2026-04-12 10:46 -26.93359 -49.76398 37245 ft 503 kts 24°
2026-04-12 10:47 -26.87225 -49.72626 37240 ft 503 kts 24°
2026-04-12 10:47 -26.81074 -49.68849 37242 ft 503 kts 24°
2026-04-12 10:48 -26.74936 -49.65085 37242 ft 503 kts 23°
2026-04-12 10:48 -26.68793 -49.61323 37240 ft 504 kts 24°
2026-04-12 10:49 -26.62638 -49.57556 37239 ft 504 kts 24°
2026-04-12 10:49 -26.56480 -49.53793 37240 ft 505 kts 24°
2026-04-12 10:50 -26.50301 -49.50025 37245 ft 506 kts 24°
2026-04-12 10:50 -26.44111 -49.46253 37245 ft 507 kts 24°
2026-04-12 10:51 -26.37908 -49.42478 37250 ft 507 kts 24°
2026-04-12 10:51 -26.32711 -49.39317 37247 ft 508 kts 24°
2026-04-12 10:52 -26.26488 -49.35538 37254 ft 509 kts 24°
2026-04-12 10:52 -26.20271 -49.31768 37253 ft 510 kts 24°
2026-04-12 10:53 -26.13266 -49.26859 37250 ft 518 kts 40°
2026-04-12 10:53 -26.09450 -49.21635 37246 ft 522 kts 60°
2026-04-12 10:54 -26.06366 -49.14362 37240 ft 523 kts 66°
2026-04-12 10:54 -26.03364 -49.06978 37226 ft 524 kts 66°
2026-04-12 10:55 -26.00322 -48.99617 37231 ft 524 kts 66°
2026-04-12 10:55 -25.97257 -48.92242 37222 ft 525 kts 65°
2026-04-12 10:56 -25.94196 -48.84895 37220 ft 524 kts 66°
2026-04-12 10:56 -25.91112 -48.77502 37215 ft 525 kts 66°
2026-04-12 10:57 -25.88045 -48.70181 37226 ft 524 kts 66°
2026-04-12 10:57 -25.84958 -48.62826 37220 ft 525 kts 66°
2026-04-12 10:58 -25.81865 -48.55462 37217 ft 526 kts 65°
2026-04-12 10:58 -25.78767 -48.48101 37215 ft 525 kts 66°
2026-04-12 10:59 -25.75689 -48.40799 37212 ft 525 kts 66°
2026-04-12 10:59 -25.72588 -48.33458 37213 ft 526 kts 66°
2026-04-12 11:00 -25.69473 -48.26094 37202 ft 526 kts 66°
2026-04-12 11:00 -25.66383 -48.18803 37202 ft 526 kts 66°
2026-04-12 11:01 -25.63265 -48.11456 37202 ft 526 kts 66°
2026-04-12 11:01 -25.60143 -48.04118 37204 ft 526 kts 66°
2026-04-12 11:02 -25.57015 -47.96783 37202 ft 526 kts 66°
2026-04-12 11:02 -25.53885 -47.89456 37198 ft 526 kts 66°
2026-04-12 11:03 -25.50746 -47.82120 37205 ft 527 kts 66°
2026-04-12 11:03 -25.47629 -47.74844 37200 ft 527 kts 66°
2026-04-12 11:04 -25.44475 -47.67497 37199 ft 527 kts 66°
2026-04-12 11:04 -25.41324 -47.60168 37211 ft 529 kts 66°
2026-04-12 11:05 -25.38160 -47.52825 37204 ft 528 kts 66°
2026-04-12 11:05 -25.34993 -47.45494 37205 ft 527 kts 66°
2026-04-12 11:06 -25.31831 -47.38185 37199 ft 527 kts 66°
2026-04-12 11:06 -25.28664 -47.30876 37201 ft 526 kts 66°
2026-04-12 11:07 -25.25503 -47.23591 37192 ft 526 kts 66°
2026-04-12 11:07 -25.22334 -47.16301 37187 ft 525 kts 66°
2026-04-12 11:08 -25.19194 -47.09090 37184 ft 524 kts 66°
2026-04-12 11:08 -25.16030 -47.01836 37182 ft 523 kts 66°
2026-04-12 11:09 -25.12861 -46.94600 37179 ft 523 kts 65°
2026-04-12 11:09 -25.09651 -46.87381 37180 ft 523 kts 65°
2026-04-12 11:10 -25.06462 -46.80221 37179 ft 523 kts 65°
2026-04-12 11:10 -25.03250 -46.73011 37185 ft 523 kts 65°
2026-04-12 11:11 -25.00039 -46.65813 37184 ft 524 kts 65°
2026-04-12 11:11 -24.96819 -46.58606 37190 ft 524 kts 65°
2026-04-12 11:12 -24.93595 -46.51396 37193 ft 524 kts 65°
2026-04-12 11:12 -24.90366 -46.44186 37197 ft 525 kts 65°
2026-04-12 11:13 -24.87132 -46.36978 37206 ft 525 kts 65°
2026-04-12 11:13 -24.83888 -46.29759 37208 ft 525 kts 65°
2026-04-12 11:14 -24.80638 -46.22541 37214 ft 525 kts 65°
2026-04-12 11:14 -24.77408 -46.15377 37201 ft 525 kts 65°
2026-04-12 11:15 -24.74168 -46.08201 37201 ft 524 kts 65°
2026-04-12 11:15 -24.70921 -46.01021 37207 ft 523 kts 65°
2026-04-12 11:16 -24.67664 -45.93832 37213 ft 524 kts 65°
2026-04-12 11:16 -24.64433 -45.86710 37212 ft 523 kts 65°
2026-04-12 11:17 -24.61184 -45.79561 37200 ft 523 kts 65°
2026-04-12 11:17 -24.57931 -45.72413 37200 ft 522 kts 65°
2026-04-12 11:18 -24.54680 -45.65283 37195 ft 521 kts 65°
2026-04-12 11:18 -24.51428 -45.58159 37198 ft 521 kts 65°
2026-04-12 11:19 -24.48196 -45.51090 37192 ft 521 kts 65°
2026-04-12 11:19 -24.44942 -45.43986 37193 ft 520 kts 65°
2026-04-12 11:20 -24.41682 -45.36876 37198 ft 520 kts 65°
2026-04-12 11:20 -24.38439 -45.29817 37201 ft 521 kts 65°
2026-04-12 11:21 -24.35174 -45.22720 37209 ft 521 kts 65°
2026-04-12 11:21 -24.31902 -45.15619 37209 ft 521 kts 65°
2026-04-12 11:22 -24.28608 -45.08481 37206 ft 522 kts 65°
2026-04-12 11:22 -24.25345 -45.01421 37214 ft 522 kts 65°
2026-04-12 11:23 -24.22119 -44.94444 37216 ft 498 kts 64°
2026-04-12 11:23 -24.19015 -44.87749 37222 ft 494 kts 64°
2026-04-12 11:24 -24.15882 -44.80995 37217 ft 499 kts 64°
2026-04-12 11:24 -24.12768 -44.74226 37225 ft 497 kts 67°
2026-04-12 11:25 -24.10577 -44.67094 37223 ft 493 kts 80°
2026-04-12 11:25 -24.09446 -44.59743 37221 ft 492 kts 84°
2026-04-12 11:26 -24.08361 -44.52341 37222 ft 491 kts 84°
2026-04-12 11:26 -24.07266 -44.44938 37224 ft 491 kts 84°
2026-04-12 11:27 -24.06172 -44.37560 37224 ft 491 kts 84°
2026-04-12 11:27 -24.05081 -44.30228 37222 ft 491 kts 84°
2026-04-12 11:28 -24.03980 -44.22851 37232 ft 491 kts 84°
2026-04-12 11:28 -24.02875 -44.15472 37223 ft 491 kts 84°
2026-04-12 11:29 -24.01705 -44.08112 37225 ft 492 kts 78°
2026-04-12 11:29 -23.99191 -44.01132 37222 ft 496 kts 61°
2026-04-12 11:30 -23.95631 -43.94669 37220 ft 496 kts 60°
2026-04-12 11:30 -23.92104 -43.88241 37230 ft 496 kts 60°
2026-04-12 11:31 -23.88552 -43.81772 37228 ft 496 kts 60°
2026-04-12 11:31 -23.84993 -43.75305 37224 ft 496 kts 60°
2026-04-12 11:32 -23.82032 -43.69932 37221 ft 496 kts 60°
2026-04-12 11:32 -23.78463 -43.63463 37237 ft 497 kts 60°
2026-04-12 11:33 -23.74877 -43.57005 37236 ft 497 kts 57°
2026-04-12 11:33 -23.70409 -43.51255 37235 ft 497 kts 43°
2026-04-12 11:34 -23.65414 -43.46099 37229 ft 497 kts 43°
2026-04-12 11:34 -23.60397 -43.40891 37240 ft 498 kts 43°
2026-04-12 11:35 -23.55374 -43.35682 37239 ft 498 kts 43°
2026-04-12 11:35 -23.50347 -43.30476 37239 ft 498 kts 43°
2026-04-12 11:36 -23.45340 -43.25297 37235 ft 498 kts 43°
2026-04-12 11:36 -23.40316 -43.20107 36842 ft 487 kts 43°
2026-04-12 11:37 -23.37978 -43.17533 36124 ft 482 kts 51°
2026-04-12 11:37 -23.36117 -43.14541 35409 ft 475 kts 65°
2026-04-12 11:37 -23.34906 -43.11242 34737 ft 464 kts 79°
2026-04-12 11:37 -23.34408 -43.07832 34080 ft 451 kts 92°
2026-04-12 11:38 -23.34639 -43.04490 33389 ft 435 kts 107°
2026-04-12 11:38 -23.35568 -43.01432 32728 ft 418 kts 122°
2026-04-12 11:38 -23.37133 -42.98906 32477 ft 389 kts 139°
2026-04-12 11:38 -23.39142 -42.97107 32189 ft 362 kts 156°
2026-04-12 11:39 -23.41425 -42.96138 31605 ft 346 kts 174°
2026-04-12 11:39 -23.43749 -42.96095 31045 ft 336 kts 194°
2026-04-12 11:39 -23.45907 -42.96978 30594 ft 332 kts 212°
2026-04-12 11:39 -23.47830 -42.98383 30326 ft 333 kts 214°
2026-04-12 11:40 -23.49790 -42.99738 29718 ft 334 kts 210°
2026-04-12 11:40 -23.51847 -43.00909 28928 ft 334 kts 205°
2026-04-12 11:40 -23.53998 -43.01943 27945 ft 340 kts 203°
2026-04-12 11:40 -23.56230 -43.02911 26729 ft 352 kts 201°
2026-04-12 11:41 -23.58579 -43.03884 25335 ft 370 kts 201°
2026-04-12 11:41 -23.61046 -43.04894 23964 ft 385 kts 201°
2026-04-12 11:41 -23.63593 -43.05965 22443 ft 398 kts 201°
2026-04-12 11:41 -23.66210 -43.07079 20959 ft 408 kts 201°
2026-04-12 11:42 -23.68788 -43.08341 19556 ft 416 kts 210°
2026-04-12 11:42 -23.71117 -43.10278 18159 ft 424 kts 224°
2026-04-12 11:42 -23.72969 -43.12805 16657 ft 431 kts 237°
2026-04-12 11:43 -23.74780 -43.19014 14226 ft 431 kts 266°
2026-04-12 11:43 -23.74563 -43.22228 13388 ft 420 kts 282°
2026-04-12 11:43 -23.73605 -43.25167 12639 ft 406 kts 298°
2026-04-12 11:43 -23.71975 -43.27624 11918 ft 393 kts 316°
2026-04-12 11:44 -23.69828 -43.29337 11396 ft 374 kts 336°
2026-04-12 11:44 -23.67417 -43.30143 10928 ft 355 kts 356°
2026-04-12 11:44 -23.65037 -43.29959 10564 ft 333 kts 19°
2026-04-12 11:44 -23.62990 -43.28988 10386 ft 311 kts 29°
2026-04-12 11:45 -23.61110 -43.28035 10211 ft 294 kts 24°
2026-04-12 11:45 -23.59212 -43.27319 9785 ft 286 kts 19°
2026-04-12 11:45 -23.57318 -43.26699 9454 ft 284 kts 20°
2026-04-12 11:45 -23.55439 -43.25938 9221 ft 288 kts 24°
2026-04-12 11:46 -23.53585 -43.25172 8967 ft 282 kts 22°
2026-04-12 11:46 -23.51741 -43.24452 8712 ft 282 kts 22°
2026-04-12 11:46 -23.49916 -43.23735 8470 ft 281 kts 22°
2026-04-12 11:46 -23.48088 -43.23004 8224 ft 280 kts 22°
2026-04-12 11:47 -23.46264 -43.22263 7980 ft 279 kts 22°
2026-04-12 11:47 -23.44449 -43.21520 7738 ft 277 kts 22°
2026-04-12 11:47 -23.42652 -43.20781 7499 ft 276 kts 22°
2026-04-12 11:47 -23.40853 -43.20041 7265 ft 275 kts 22°
2026-04-12 11:48 -23.39058 -43.19318 7039 ft 274 kts 19°
2026-04-12 11:48 -23.37209 -43.18811 6928 ft 275 kts 13°
2026-04-12 11:48 -23.35328 -43.18421 6797 ft 275 kts 12°
2026-04-12 11:48 -23.33441 -43.18038 6515 ft 275 kts 13°
2026-04-12 11:49 -23.31599 -43.17642 6205 ft 272 kts 13°
2026-04-12 11:49 -23.29756 -43.17226 5899 ft 268 kts 14°
2026-04-12 11:49 -23.27960 -43.16807 5723 ft 259 kts 14°
2026-04-12 11:49 -23.26369 -43.16432 5627 ft 248 kts 15°
2026-04-12 11:50 -23.24718 -43.16040 5538 ft 237 kts 15°
2026-04-12 11:50 -23.23136 -43.15664 5384 ft 229 kts 15°
2026-04-12 11:50 -23.21585 -43.15294 5116 ft 228 kts 15°
2026-04-12 11:50 -23.20044 -43.14909 4829 ft 226 kts 19°
2026-04-12 11:51 -23.18579 -43.14380 4547 ft 224 kts 21°
2026-04-12 11:51 -23.17103 -43.13840 4267 ft 223 kts 21°
2026-04-12 11:51 -23.15630 -43.13307 4008 ft 222 kts 21°
2026-04-12 11:51 -23.14169 -43.12779 3729 ft 221 kts 21°
2026-04-12 11:52 -23.12717 -43.12256 3517 ft 217 kts 21°
2026-04-12 11:52 -23.11279 -43.11738 3486 ft 221 kts 21°
2026-04-12 11:52 -23.09807 -43.11236 3482 ft 221 kts 14°
2026-04-12 11:52 -23.08279 -43.11180 3484 ft 226 kts 354°
2026-04-12 11:53 -23.06720 -43.11470 3411 ft 225 kts 353°
2026-04-12 11:53 -23.05211 -43.11752 3329 ft 214 kts 354°
2026-04-12 11:53 -23.03774 -43.12014 3247 ft 203 kts 354°
2026-04-12 11:53 -23.02426 -43.12255 3187 ft 184 kts 355°
2026-04-12 11:54 -23.01232 -43.12470 3048 ft 163 kts 355°
2026-04-12 11:54 -23.00174 -43.12662 2930 ft 144 kts 355°
2026-04-12 11:54 -22.99224 -43.12836 2711 ft 136 kts 355°
2026-04-12 11:54 -22.98285 -43.13003 2376 ft 137 kts 355°
2026-04-12 11:55 -22.97356 -43.13169 2074 ft 137 kts 354°
2026-04-12 11:55 -22.96425 -43.13343 1757 ft 135 kts 351°
2026-04-12 11:55 -22.95614 -43.13811 1493 ft 135 kts 323°
2026-04-12 11:55 -22.94881 -43.14527 1067 ft 145 kts 318°
2026-04-12 11:56 -22.94268 -43.15374 778 ft 142 kts 305°
2026-04-12 11:56 -22.93588 -43.16112 476 ft 137 kts 331°
2026-04-12 11:56 -22.92677 -43.16261 202 ft 133 kts
2026-04-12 11:56 -22.91777 -43.16236 48 ft 132 kts 356°
2026-04-12 11:57 -22.90964 -43.16292 19 ft 84 kts 357°
2026-04-12 11:57 -22.90612 -43.16315 21 ft 39 kts 356°
2026-04-12 11:57 -22.90500 -43.16433 19 ft 25 kts 271°
2026-04-12 11:57 -22.90539 -43.16551 18 ft 14 kts 200°
2026-04-12 11:58 -22.90639 -43.16566 18 ft 15 kts 199°
2026-04-12 11:58 -22.90652 -43.16626 18 ft 0 kts 268°